Volver al catálogo

STARLINK-11167

ActivoComunicacionesVLEO
NORAD 60061·PAYLOAD·🇺🇸 United States

Lanzado Jun 19, 2024 desde Vandenberg Space Force Base

Loading…

Próximos Pases (próximas 24 horas)

TLE

ActualizadoSource: CelesTrak SupGP

Época: Sep 15, 2026, 03:01 UTC

1 60061C 24113C   26258.12618056  .00032854  00000+0  27066-3 0  2589
2 60061  53.1563 337.3743 0001112  81.5789 296.3264 15.69690726    15

Sigue STARLINK-11167 en tiempo real con AllMySat

Download on the App Store